[[{"header":{"parameterUnit":"m.s-1","parameterCategory":1,"la1":30.2992,"la2":30.254,"lo1":-89.0895,"lo2":-89.0443,"dy":0.0025,"dx":0.0025,"nx":19,"ny":19,"refTime":"2026-03-24T21:00:00:Z","depth":0,"parameterNumber":2,"parameterNumberName":"U-component_of_WINDS"},"data":[0,0,0,-3.0191,-3.0194,-3.0303,-3.0304,-3.0455,-3.0457,0,0,0,0,0,0,0,0,0,0,0,-3.0164,-3.0166,-3.0191,-3.0194,-3.0303,-3.0304,-3.0455,-3.0457,0,0,0,0,0,0,0,0,0,0,0,-3.0164,-3.0165,-3.0167,-3.0194,-3.0303,-3.0304,-3.0455,-3.0368,0,0,0,0,0,0,0,0,0,0,-3.026,-3.024,-3.0165,-3.0167,-3.0195,-3.0303,-3.0304,-3.0364,-3.0373,-3.041,0,-3.0443,0,-3.0452,-3.0467,-3.0468,0,0,0,-3.019,-3.0232,-3.0257,-3.0167,-3.0196,-3.0303,-3.0253,-3.0369,-3.038,-3.0423,-3.0445,-3.0451,-3.0455,-3.0468,-3.0469,-3.0693,-3.0694,0,0,-3.0184,-3.0187,-3.0249,-3.0264,-3.0247,-3.0249,-3.0256,-3.0376,-3.04,-3.0446,-3.0454,-3.0457,-3.0469,-3.0471,-3.0692,-3.0693,0,0,0,-3.0169,-3.0183,-3.0204,-3.0258,-3.0277,-3.0253,-3.026,-3.0395,-3.0402,-3.0456,-3.0459,-3.047,-3.0472,-3.069,-3.0692,-3.0757,0,0,0,-3.0165,-3.0175,-3.0202,-3.0205,-3.0275,-3.0337,-3.0277,-3.0393,-3.0407,-3.0458,-3.047,-3.0474,-3.0689,-3.0691,-3.0752,-3.0786,0,0,0,-3.0155,-3.0173,-3.0191,-3.0205,-3.0253,-3.0335,-3.0348,-3.0396,-3.0409,-3.0468,-3.0474,-3.0688,-3.0691,-3.0748,-3.0779,-3.0846,0,0,0,-3.0146,-3.0247,-3.0192,-3.0307,-3.0252,-3.0374,-3.0348,-3.0439,-3.0497,-3.0471,-3.0689,-3.0692,-3.0747,-3.0775,-3.0842,-3.0903,-3.0929,0,0,-3.0275,-3.0262,-3.0329,-3.0284,-3.0417,-3.0357,-3.05,-3.055,-3.0553,-3.0646,-3.0652,-3.0754,-3.0779,-3.0846,-3.1074,-3.1094,0,0,0,-3.0372,-3.042,-3.0454,-3.051,-3.0551,-3.0589,-3.0617,-3.0636,-3.0715,-3.0601,-3.0796,-3.0811,-3.085,-3.0879,-3.0897,-3.093,-3.0706,-3.0706,-3.0705,-3.0559,-3.0557,-3.0668,-3.0681,-3.0735,-3.0764,-3.0809,-3.0839,-3.0821,-3.0868,-3.0895,-3.1033,-3.1067,-3.108,-3.1115,-3.0927,-3.0928,-3.0928,-3.0928,-3.0747,-3.0816,-3.0791,-3.089,-3.0888,-3.0972,-3.1005,-3.099,-3.1068,-3.1012,-3.1046,-3.0985,-3.1103,-3.1133,-3.0933,-3.0932,-3.0932,-3.0931,-3.0931,-3.0869,-3.0901,-3.0923,-3.1005,-3.1068,-3.1078,-3.1155,-3.1151,-3.1148,-3.1182,-3.121,-3.1209,-3.1208,-3.1196,-3.1196,-3.1197,-3.1197,-3.1198,-3.1198,-3.0986,-3.1009,-3.1073,-3.1127,-3.1163,-3.121,-3.1242,-3.1278,-3.1317,-3.1308,-3.1308,-3.1286,-3.1115,-3.1072,-3.1205,-3.1204,-3.1203,-3.1202,-3.1202,-3.1176,-3.1133,-3.1233,-3.1269,-3.1333,-3.1397,-3.1392,-3.1466,-3.1495,-3.1534,-3.1506,-3.138,-3.1366,-3.1352,-3.1316,-3.1505,-3.1505,-3.1505,-3.1505,-3.1278,-3.1272,-3.1374,-3.1433,-3.149,-3.1496,-3.1611,-3.1638,-3.1659,-3.1677,-3.165,-3.1602,-3.1588,-3.1583,-3.1564,-3.1531,-3.177,-3.177,-3.177,-3.1396,-3.1395,-3.1492,-3.1512,-3.1562,-3.1606,-3.1714,-3.1783,-3.1799,-3.1781,-3.1692,-3.1681,-3.1604,-3.1579,-3.1557,-3.1528,-3.1466,0,0]},{"header":{"parameterUnit":"m.s-1","parameterCategory":1,"la1":30.2992,"la2":30.254,"lo1":-89.0895,"lo2":-89.0443,"dy":0.0025,"dx":0.0025,"nx":19,"ny":19,"refTime":"2026-03-24T21:00:00:Z","depth":0,"parameterNumber":3,"parameterNumberName":"V-component_of_WINDS"},"data":[0,0,0,2.6776,2.6777,2.681,2.681,2.6855,2.6856,0,0,0,0,0,0,0,0,0,0,0,2.6768,2.6769,2.6776,2.6777,2.681,2.681,2.6855,2.6856,0,0,0,0,0,0,0,0,0,0,0,2.6768,2.6769,2.6769,2.6777,2.681,2.681,2.6855,2.6829,0,0,0,0,0,0,0,0,0,0,2.6796,2.6791,2.6768,2.6769,2.6777,2.681,2.681,2.6827,2.683,2.6841,0,2.6853,0,2.6855,2.6859,2.6859,0,0,0,2.6774,2.6789,2.6796,2.6769,2.6777,2.681,2.6794,2.6829,2.6832,2.6845,2.6854,2.6855,2.6856,2.6859,2.6859,2.6935,2.6935,0,0,2.6772,2.6775,2.6794,2.6798,2.6795,2.6793,2.6795,2.6831,2.6839,2.6854,2.6856,2.6857,2.686,2.686,2.6934,2.6935,0,0,0,2.6769,2.6774,2.678,2.6797,2.6803,2.6794,2.6797,2.6838,2.684,2.6857,2.6857,2.686,2.686,2.6934,2.6934,2.6961,0,0,0,2.6767,2.6772,2.6779,2.6781,2.6802,2.6821,2.6803,2.6837,2.6841,2.6857,2.686,2.6861,2.6933,2.6934,2.6959,2.6972,0,0,0,2.6765,2.6772,2.6777,2.6781,2.6796,2.682,2.6824,2.6838,2.6842,2.6859,2.6861,2.6933,2.6934,2.6957,2.697,2.6994,0,0,0,2.6763,2.6799,2.6778,2.6818,2.6796,2.6837,2.6824,2.6853,2.6871,2.686,2.6933,2.6934,2.6957,2.6968,2.6992,2.7015,2.7024,0,0,2.681,2.6805,2.6828,2.681,2.6856,2.6831,2.688,2.6893,2.6891,2.692,2.6922,2.6959,2.6969,2.6993,2.7077,2.7085,0,0,0,2.6844,2.6861,2.6872,2.689,2.6902,2.6914,2.6919,2.6924,2.6949,2.6907,2.6974,2.698,2.6994,2.7005,2.7011,2.7023,2.6939,2.6939,2.6939,2.6913,2.6911,2.695,2.6952,2.6969,2.6975,2.6989,2.6997,2.6988,2.7004,2.7012,2.7064,2.7076,2.7081,2.7094,2.7024,2.7024,2.7024,2.7024,2.6982,2.7006,2.6994,2.7028,2.7025,2.7053,2.706,2.7053,2.7078,2.7056,2.7068,2.7045,2.709,2.71,2.7026,2.7025,2.7025,2.7025,2.7025,2.7027,2.7038,2.7045,2.7072,2.7093,2.7093,2.7118,2.7114,2.7109,2.7121,2.713,2.713,2.7129,2.7126,2.7126,2.7126,2.7127,2.7127,2.7127,2.7072,2.7079,2.7101,2.7118,2.713,2.7145,2.7152,2.7163,2.7174,2.7169,2.7169,2.7158,2.7095,2.7079,2.713,2.7129,2.7129,2.7128,2.7128,2.7143,2.7127,2.7161,2.7174,2.7193,2.7215,2.7209,2.7232,2.7241,2.7253,2.7241,2.7194,2.7188,2.7183,2.717,2.7241,2.7241,2.7241,2.7241,2.7182,2.7179,2.7214,2.7234,2.7252,2.7251,2.7291,2.7297,2.73,2.7305,2.7294,2.7276,2.7271,2.7268,2.7261,2.7249,2.7338,2.7338,2.7339,2.7225,2.7224,2.7259,2.7264,2.7279,2.7292,2.7329,2.7351,2.7351,2.7342,2.7309,2.7305,2.7276,2.7267,2.7257,2.7246,2.7224,0,0]}]]